When you browse on this site, cookies collect data to enhance your experience and personalize the content and advertising you see.
Visit our Privacy Policy to learn more. By continuing to use the site, you agree to this use of cookies and data.
  • In Romania
  • List of Countries
  • For 7 days
  • Water Temperature
  • Satellite Maps
  • Weather Map
  • Weather Widgets
  • user-avatar
    Login

    Hourly Weather Timiryazevskiy

    Today, 25 March, Monday

    Time Temperature Precipitation Wind Pressure Humidity
    00:00 -4°C° 0.3 mm 7 mps 736 mmHg 94%
    01:00 -4°C° 0.3 mm 7 mps 736 mmHg 94%
    02:00 -6°C° 0.3 mm 7 mps 736 mmHg 93%
    03:00 -7°C° 0.3 mm 7 mps 735 mmHg 93%
    04:00 -7°C° 0 mm 7 mps 735 mmHg 93%
    05:00 -7°C° 0 mm 7 mps 735 mmHg 93%
    06:00 -8°C° 0 mm 7 mps 735 mmHg 93%
    07:00 -7°C° 0 mm 7 mps 736 mmHg 93%
    08:00 -6°C° 0 mm 7 mps 736 mmHg 92%
    09:00 -4°C° 0 mm 7 mps 736 mmHg 92%
    10:00 -3°C° 0 mm 7 mps 737 mmHg 94%
    11:00 -3°C° 0 mm 7 mps 737 mmHg 96%
    12:00 -2°C° 0 mm 7 mps 737 mmHg 98%
    13:00 -2°C° 0 mm 7 mps 738 mmHg 96%
    14:00 -2°C° 0 mm 7 mps 738 mmHg 95%
    15:00 -2°C° 0 mm 7 mps 738 mmHg 93%
    16:00 -3°C° 0 mm 6 mps 739 mmHg 91%
    17:00 -3°C° 0 mm 6 mps 739 mmHg 90%
    18:00 -2°C° 0 mm 5 mps 740 mmHg 88%
    19:00 -4°C° 0 mm 5 mps 741 mmHg 89%
    20:00 -3°C° 0 mm 4 mps 741 mmHg 90%
    21:00 -4°C° 0 mm 4 mps 742 mmHg 91%
    22:00 -5°C° 0 mm 4 mps 742 mmHg 91%
    23:00 -6°C° 0 mm 3 mps 743 mmHg 92%

    Tomorrow, 26 March, Tuesday

    Time Temperature Precipitation Wind Pressure Humidity
    00:00 -7°C° 0 mm 3 mps 743 mmHg 93%
    01:00 -8°C° 0 mm 3 mps 743 mmHg 92%
    02:00 -8°C° 0 mm 3 mps 744 mmHg 91%
    03:00 -7°C° 0 mm 2 mps 744 mmHg 90%
    04:00 -7°C° 0 mm 2 mps 744 mmHg 89%
    05:00 -7°C° 0 mm 2 mps 744 mmHg 88%
    06:00 -6°C° 0 mm 2 mps 744 mmHg 87%
    07:00 -5°C° 0 mm 2 mps 744 mmHg 86%
    08:00 -4°C° 0 mm 3 mps 744 mmHg 85%
    09:00 -2°C° 0 mm 3 mps 744 mmHg 84%
    10:00 -2°C° 0 mm 4 mps 744 mmHg 89%
    11:00 -2°C° 0 mm 4 mps 744 mmHg 94%
    12:00 -1°C° 0 mm 5 mps 743 mmHg 99%
    13:00 -1°C° 0.2 mm 5 mps 743 mmHg 99%
    14:00 -1°C° 0.2 mm 5 mps 742 mmHg 99%
    15:00 -2°C° 0.2 mm 6 mps 741 mmHg 99%
    16:00 0°C° 0.2 mm 5 mps 741 mmHg 99%
    17:00 0°C° 0.2 mm 5 mps 741 mmHg 99%
    18:00 0°C° 0.2 mm 4 mps 740 mmHg 99%
    19:00 0°C° 1.2 mm 4 mps 740 mmHg 99%
    20:00 0°C° 1.2 mm 5 mps 740 mmHg 99%
    21:00 0°C° 1.2 mm 5 mps 740 mmHg 99%
    22:00 0°C° 1 mm 5 mps 740 mmHg 99%
    23:00 0°C° 1 mm 5 mps 740 mmHg 99%

    Day after tomorrow, 27 March, Wednesday

    Time Temperature Precipitation Wind Pressure Humidity
    00:00 0°C° 1 mm 5 mps 739 mmHg 99%
    01:00 0°C° 0.8 mm 5 mps 739 mmHg 99%
    02:00 0°C° 0.8 mm 5 mps 739 mmHg 99%
    03:00 0°C° 0.8 mm 5 mps 739 mmHg 99%
    04:00 0°C° 0.3 mm 4 mps 739 mmHg 99%
    05:00 0°C° 0.3 mm 4 mps 739 mmHg 99%
    06:00 -1°C° 0.3 mm 4 mps 739 mmHg 99%
    07:00 -1°C° 0.2 mm 4 mps 740 mmHg 99%
    08:00 -1°C° 0.2 mm 4 mps 741 mmHg 99%
    09:00 -1°C° 0.2 mm 4 mps 741 mmHg 99%
    10:00 0°C° 0 mm 3 mps 741 mmHg 99%
    11:00 0°C° 0 mm 3 mps 742 mmHg 99%
    12:00 +1°C° 0 mm 2 mps 742 mmHg 99%
    13:00 +1°C° 0 mm 2 mps 743 mmHg 99%
    14:00 -1°C° 0 mm 2 mps 743 mmHg 99%
    15:00 -1°C° 0 mm 2 mps 743 mmHg 99%
    16:00 -1°C° 0 mm 2 mps 743 mmHg 98%
    17:00 -2°C° 0 mm 2 mps 744 mmHg 97%
    18:00 -2°C° 0 mm 2 mps 744 mmHg 96%
    19:00 -1°C° 0 mm 1 mps 744 mmHg 95%
    20:00 -2°C° 0 mm 1 mps 745 mmHg 95%
    21:00 -3°C° 0 mm 1 mps 745 mmHg 95%
    22:00 -3°C° 0 mm 1 mps 745 mmHg 94%
    23:00 -5°C° 0 mm 2 mps 744 mmHg 93%

    28 March, Thursday

    Time Temperature Precipitation Wind Pressure Humidity
    00:00 -6°C° 0 mm 2 mps 744 mmHg 92%
    01:00 -6°C° 0 mm 2 mps 744 mmHg 91%
    02:00 -5°C° 0 mm 2 mps 744 mmHg 91%
    03:00 -6°C° 0 mm 3 mps 744 mmHg 90%
    04:00 -6°C° 0 mm 3 mps 744 mmHg 89%
    05:00 -6°C° 0 mm 3 mps 744 mmHg 87%
    06:00 -6°C° 0 mm 3 mps 744 mmHg 86%
    07:00 -5°C° 0 mm 3 mps 745 mmHg 86%
    08:00 -5°C° 0 mm 4 mps 745 mmHg 85%
    09:00 -4°C° 0 mm 4 mps 745 mmHg 85%
    10:00 -4°C° 0 mm 4 mps 745 mmHg 85%
    11:00 -3°C° 0 mm 4 mps 746 mmHg 86%
    12:00 -4°C° 0 mm 5 mps 746 mmHg 86%
    13:00 -4°C° 0 mm 5 mps 746 mmHg 87%
    14:00 -2°C° 0 mm 5 mps 746 mmHg 89%
    15:00 -3°C° 0 mm 6 mps 746 mmHg 90%
    16:00 -2°C° 0 mm 5 mps 747 mmHg 90%
    17:00 -2°C° 0 mm 5 mps 747 mmHg 91%
    18:00 -2°C° 0 mm 5 mps 747 mmHg 91%
    19:00 -2°C° 0 mm 5 mps 747 mmHg 91%
    20:00 -2°C° 0 mm 5 mps 748 mmHg 91%
    21:00 -4°C° 0 mm 5 mps 748 mmHg 91%
    22:00 -4°C° 0 mm 5 mps 748 mmHg 91%
    23:00 -5°C° 0 mm 5 mps 748 mmHg 91%

    29 March, Friday

    Time Temperature Precipitation Wind Pressure Humidity
    00:00 -5°C° 0 mm 5 mps 749 mmHg 92%
    01:00 -6°C° 0 mm 5 mps 749 mmHg 92%
    02:00 -7°C° 0 mm 4 mps 749 mmHg 93%
    03:00 -7°C° 0 mm 4 mps 749 mmHg 94%
    04:00 -8°C° 0 mm 4 mps 749 mmHg 94%
    05:00 -8°C° 0 mm 4 mps 749 mmHg 94%
    06:00 -8°C° 0 mm 4 mps 749 mmHg 94%
    07:00 -8°C° 0 mm 4 mps 749 mmHg 91%
    08:00 -7°C° 0 mm 4 mps 750 mmHg 89%
    09:00 -7°C° 0 mm 4 mps 750 mmHg 87%
    10:00 -6°C° 0 mm 5 mps 749 mmHg 86%
    11:00 -5°C° 0 mm 5 mps 749 mmHg 84%
    12:00 -4°C° 0 mm 5 mps 749 mmHg 83%
    13:00 -3°C° 0 mm 6 mps 748 mmHg 83%
    14:00 -3°C° 0 mm 6 mps 747 mmHg 82%
    15:00 -2°C° 0 mm 6 mps 747 mmHg 81%
    16:00 -2°C° 0.2 mm 6 mps 746 mmHg 83%
    17:00 -2°C° 0.2 mm 6 mps 745 mmHg 85%
    18:00 -2°C° 0.2 mm 6 mps 745 mmHg 87%
    19:00 -2°C° 0.9 mm 6 mps 744 mmHg 89%
    20:00 -2°C° 0.9 mm 6 mps 744 mmHg 90%
    21:00 -2°C° 0.9 mm 6 mps 743 mmHg 92%
    22:00 -2°C° 0.1 mm 6 mps 743 mmHg 92%
    23:00 -2°C° 0.1 mm 6 mps 743 mmHg 92%

    30 March, Saturday

    Time Temperature Precipitation Wind Pressure Humidity
    00:00 -2°C° 0.1 mm 6 mps 742 mmHg 92%
    01:00 -2°C° 0 mm 5 mps 743 mmHg 92%
    02:00 -2°C° 0 mm 5 mps 743 mmHg 92%
    03:00 -4°C° 0 mm 5 mps 743 mmHg 92%
    04:00 -5°C° 0 mm 5 mps 744 mmHg 92%
    05:00 -5°C° 0 mm 4 mps 744 mmHg 92%
    06:00 -7°C° 0 mm 4 mps 745 mmHg 92%
    07:00 -5°C° 0 mm 4 mps 745 mmHg 92%
    08:00 -4°C° 0 mm 4 mps 746 mmHg 92%
    09:00 -3°C° 0 mm 4 mps 746 mmHg 92%
    10:00 -1°C° 0 mm 3 mps 746 mmHg 94%
    11:00 -1°C° 0 mm 3 mps 747 mmHg 96%
    12:00 -1°C° 0 mm 3 mps 747 mmHg 98%
    13:00 -1°C° 0 mm 3 mps 747 mmHg 98%
    14:00 -1°C° 0 mm 2 mps 747 mmHg 98%
    15:00 +1°C° 0 mm 2 mps 747 mmHg 98%
    16:00 -1°C° 0 mm 2 mps 747 mmHg 97%
    17:00 +1°C° 0 mm 1 mps 747 mmHg 95%
    18:00 +1°C° 0 mm 1 mps 748 mmHg 93%
    19:00 0°C° 0 mm 1 mps 748 mmHg 94%
    20:00 -1°C° 0 mm 1 mps 748 mmHg 94%
    21:00 -1°C° 0 mm 1 mps 748 mmHg 94%
    22:00 -2°C° 0 mm 1 mps 748 mmHg 94%
    23:00 -2°C° 0 mm 1 mps 748 mmHg 94%
    Show more